RH
28 37 47 56 68 78 65 51 42 50 65 78 51 32 31 34 31 28 36 48 46 43 41 41 38 40 42 40 41 39 37 33 30 27 25 26 23 20 18 14 9 6 6 5 6 5 5 6 7
28 28 52 56 62 70 62 60 49 48 60 64 54 38 32 24 31 39 44 44 45 47 43 39 37 40 44 46 48 48 49 48 50 53 52 49 44 42 42 42 36 30 21 13 8 6 6 5 5
32 31 40 60 55 50 47 64 54 47 44 45 37 34 26 33 40 47 44 44 45 47 44 45 47 49 49 48 43 37 32 29 30 30 31 30 28 29 28 28 30 37 42 45 40 30 20 12 8
32 33 32 43 41 44 44 44 63 45 56 51 32 25 27 39 41 44 46 44 48 56 50 46 43 40 47 40 31 30 29 24 25 24 25 24 17 14 15 23 24 24 27 30 36 46 47 46 36
36 44 40 36 37 44 46 39 42 51 63 71 54 30 29 41 46 47 47 50 50 42 30 24 22 22 19 15 12 10 9 8 6 6 5 5 4 4 3 4 4 4 4 6 8 16 37 50 56
44 46 45 37 34 31 33 36 29 46 42 54 66 49 33 48 47 51 56 52 49 30 14 9 8 8 8 9 10 10 10 10 12 12 13 13 13 12 11 10 9 9 8 8 8 8 6 6 15
41 40 45 37 33 32 27 28 29 31 65 49 54 63 47 46 50 54 56 41 26 8 8 9 9 9 9 6 5 4 4 4 4 5 6 7 8 9 11 12 12 12 12 11 10 8 7 6 6
45 45 42 38 29 26 22 23 30 38 49 75 64 68 58 59 50 53 46 20 7 9 9 7 6 5 4 3 3 3 4 4 4 4 4 5 5 6 6 6 6 6 7 6 4 3 3 3 3
34 31 33 37 30 23 21 23 38 64 59 76 82 68 56 67 54 52 16 8 9 8 7 5 5 3 4 4 4 3 4 4 4 5 5 6 5 5 5 5 5 4 3 2 2 3 4 4 4
25 23 22 28 24 22 20 20 44 78 78 86 73 60 55 58 44 17 8 9 7 6 4 4 3 4 4 4 5 7 9 10 10 10 10 9 8 8 7 6 6 5 5 4 4 3 3 4 5
28 37 26 21 24 20 21 20 41 67 84 67 64 65 56 35 11 8 9 8 6 4 4 4 5 5 7 8 10 12 13 14 14 15 16 17 17 17 16 14 12 11 10 8 7 6 5 5 5
32 36 21 20 23 17 20 17 30 54 51 61 67 57 26 8 8 8 8 6 6 7 6 7 8 9 11 11 11 13 15 16 18 19 21 23 24 25 25 24 22 20 18 15 13 12 9 8 7
25 23 16 24 20 18 21 17 18 35 43 42 33 11 7 7 8 8 8 8 9 9 10 12 13 16 17 18 19 20 22 23 25 28 30 32 32 33 34 34 33 33 32 29 26 22 18 14 11
20 18 20 19 17 20 23 14 9 11 10 8 7 7 7 7 7 8 8 9 10 12 13 14 14 16 17 18 20 21 22 23 27 30 32 23 30 34 37 36 35 36 38 40 43 43 36 27 22
23 22 21 17 19 20 19 11 7 7 7 7 7 8 7 6 8 8 9 10 11 11 12 14 16 18 20 21 22 24 24 26 24 23 21 24 31 34 26 25 29 33 34 31 30 33 38 44 40
22 20 16 15 18 20 12 8 7 7 6 6 7 6 7 8 8 9 10 11 12 12 13 15 18 20 22 26 25 24 21 18 18 19 16 13 25 31 28 24 19 22 30 32 30 29 32 32 37
22 18 16 16 18 18 8 8 7 6 5 6 6 7 8 9 10 12 13 15 15 17 19 20 22 24 27 29 26 23 21 19 18 17 13 10 12 24 26 24 21 16 16 19 41 33 33 38 36
23 20 18 19 17 19 8 7 8 7 7 6 7 8 9 11 12 13 14 14 16 18 21 23 25 28 28 27 24 20 16 13 14 12 9 6 6 13 19 18 13 10 21 24 37 43 42 40 39
23 23 22 19 18 19 9 7 7 8 7 7 7 8 11 11 12 13 15 18 19 20 22 25 25 24 22 19 16 12 8 6 6 6 5 5 5 8 12 12 10 17 23 20 28 43 46 44 41
24 23 23 22 21 17 8 7 8 8 8 9 9 9 10 13 16 17 20 21 21 21 22 21 18 15 13 10 8 7 6 5 4 5 5 5 5 5 6 9 14 18 19 12 24 40 52 54 47
22 24 24 26 23 12 7 6 7 8 8 10 9 11 15 18 19 20 20 20 19 18 18 15 11 9 7 6 6 6 5 4 5 6 6 6 6 6 7 8 9 30 28 18 28 47 53 54 53
20 24 26 27 20 11 5 6 7 9 9 11 12 17 18 19 17 18 20 20 17 14 13 9 7 6 6 5 5 4 4 4 4 5 6 6 6 6 6 7 8 38 46 49 48 49 53 51 53
20 21 25 26 16 7 5 6 9 9 12 14 16 16 15 15 15 15 14 14 11 10 7 6 5 5 5 4 4 4 4 4 4 4 4 5 6 7 8 8 9 16 32 40 51 54 57 57 56
21 20 22 23 21 5 6 7 9 9 10 12 13 14 14 13 12 10 9 8 7 6 6 6 5 4 4 4 4 4 4 4 4 4 5 6 8 8 8 10 10 13 29 51 60 62 63 60 58
20 24 20 21 20 8 6 6 8 8 9 9 10 10 10 9 9 8 7 6 6 5 5 4 4 4 4 4 4 4 4 4 4 5 6 8 8 9 10 10 39 53 59 64 68 65 60 61 60
20 24 29 21 22 12 7 6 7 7 7 7 7 8 8 7 6 6 5 4 4 4 4 4 4 4 4 4 5 6 6 5 9 8 8 8 10 12 12 16 56 68 65 66 68 64 63 64 62
22 22 35 34 22 17 6 5 6 5 6 6 5 5 5 5 4 4 4 4 4 4 4 4 4 5 5 7 8 6 6 7 9 9 10 14 15 15 15 25 57 63 69 72 68 65 64 61 53
26 26 26 32 32 23 8 6 6 6 5 4 4 4 4 4 4 4 4 4 4 4 4 4 5 6 8 8 10 8 8 10 13 14 16 16 18 40 65 72 70 71 72 70 67 63 52 32 18
33 34 30 29 32 26 17 10 8 6 5 4 4 4 4 3 3 3 3 4 5 5 6 7 8 10 9 10 12 13 16 23 19 18 19 28 53 66 74 78 77 77 71 54 27 13 9 8 6
9 23 32 32 31 29 18 12 8 5 4 3 3 3 4 6 13 22 25 17 10 10 13 16 15 13 30 47 28 20 20 20 22 24 46 71 82 79 82 83 76 52 24 13 7 5 5 5 5
Wind_Speed
21 18 15 14 11 11 18 15 13 9 7 12 21 20 19 17 19 16 16 16 18 18 18 17 16 16 16 14 13 13 12 11 10 10 10 10 10 12 12 11 10 9 6 6 7 9 10 11 12
21 17 16 21 20 17 17 12 11 11 13 18 20 17 17 17 18 15 13 13 16 15 14 14 13 12 11 10 11 12 12 12 12 12 11 12 13 14 12 10 9 10 11 11 9 9 9 8 8
15 17 14 13 12 10 11 7 9 10 12 13 16 16 16 17 16 13 10 12 13 13 11 9 11 12 11 11 11 12 11 11 11 11 11 12 13 14 14 14 14 13 11 10 9 9 9 10 8
12 10 12 8 5 7 8 6 6 9 13 10 11 13 12 14 12 11 10 9 9 9 9 11 11 10 10 9 10 11 11 10 10 11 11 12 12 12 13 13 13 13 14 15 12 9 10 11 11
11 9 10 11 8 8 7 5 3 9 12 10 10 12 12 11 10 8 5 7 10 10 10 10 9 9 9 10 10 10 11 12 11 11 12 13 14 14 14 14 13 14 14 14 14 14 13 12 12
13 12 13 14 9 9 7 3 2 7 14 10 5 8 11 10 7 4 7 9 9 10 9 9 8 10 10 10 11 11 12 12 12 12 13 13 14 15 15 16 16 17 16 16 15 14 14 14 15
11 10 12 12 9 7 4 3 5 8 14 15 10 4 7 7 4 3 7 7 8 8 9 9 10 11 11 12 12 12 13 13 13 13 14 13 14 14 13 15 15 16 16 17 16 16 15 14 14
11 10 8 7 2 1 0 1 4 9 14 16 13 9 5 5 3 2 6 7 7 7 7 9 10 13 14 13 12 13 13 13 13 13 13 14 14 15 15 14 15 15 15 16 16 16 18 17 15
10 8 5 3 3 4 4 4 8 10 15 15 12 9 7 4 2 2 6 6 7 8 11 12 14 12 11 10 11 13 14 16 16 16 16 15 15 15 15 14 14 15 16 17 18 19 20 19 17
11 6 4 3 5 3 6 4 8 9 16 14 9 9 8 3 1 3 5 7 10 11 11 10 10 10 11 13 13 13 14 16 17 18 19 19 19 19 20 19 18 17 15 15 17 19 21 22 21
12 3 5 6 7 5 4 4 8 5 14 12 14 10 6 3 2 6 6 7 8 8 8 9 9 11 12 13 13 14 15 16 17 18 18 19 18 18 19 19 19 20 21 20 19 19 20 22 24
15 11 10 10 9 10 2 3 8 7 12 14 13 10 4 3 3 5 7 8 8 8 8 9 10 12 14 14 15 15 15 17 18 19 19 20 21 22 22 23 23 23 23 23 23 24 24 24 25
14 13 10 9 11 8 1 4 6 7 11 11 9 6 5 4 4 5 7 7 7 8 9 11 12 14 15 14 14 16 17 18 19 20 21 22 23 24 25 25 25 25 26 26 26 27 26 27 27
6 6 6 7 8 6 3 3 8 8 8 8 8 6 5 4 3 5 5 6 9 11 13 14 14 15 15 16 17 18 19 21 21 19 17 21 24 23 22 24 26 28 29 29 29 30 31 30 31
5 6 6 6 5 7 4 4 6 6 6 6 4 3 3 1 2 6 8 10 12 13 14 13 14 15 18 18 19 20 20 19 17 16 16 21 25 22 22 26 26 29 30 31 33 33 33 33 34
7 6 7 7 6 6 4 5 5 5 5 3 2 0 3 6 8 10 11 12 14 14 16 17 17 18 19 18 17 17 17 18 19 19 21 24 26 27 28 30 29 29 31 34 38 38 36 36 37
11 10 10 10 8 8 8 8 8 7 6 4 2 3 6 10 12 12 12 13 13 16 17 19 19 19 19 19 20 20 21 23 24 25 27 28 28 28 29 33 34 35 36 38 41 40 41 39 37
14 13 12 12 11 12 13 10 9 8 7 5 4 6 8 10 10 12 14 16 17 18 20 21 22 22 23 24 26 27 27 28 29 30 31 32 33 34 35 37 39 39 42 43 44 44 44 45 43
16 16 14 14 13 13 14 13 10 10 9 7 9 10 10 11 13 13 15 18 20 22 23 24 25 26 27 29 30 30 30 30 31 32 34 35 36 37 39 41 42 42 47 46 47 50 53 48 45
17 18 15 15 14 13 13 13 12 13 10 8 9 11 13 13 15 16 18 19 22 24 25 27 29 30 31 32 33 33 32 33 35 36 38 40 40 40 42 42 44 45 49 50 51 56 56 50 45
19 18 15 16 16 15 13 15 14 12 12 11 13 13 13 15 17 19 20 21 24 26 28 29 31 34 35 35 35 35 34 36 38 40 41 42 44 44 45 46 45 45 48 49 55 58 55 47 47
20 19 17 17 15 18 16 12 15 11 13 15 15 15 15 16 19 21 22 24 27 28 30 30 32 35 37 37 37 37 38 39 41 43 45 46 46 46 46 48 46 47 49 55 58 57 49 44 45
20 21 19 17 15 18 15 12 15 15 15 15 16 17 20 21 23 25 25 28 30 30 30 31 34 39 40 40 40 42 43 44 46 48 50 49 50 49 49 49 50 51 56 61 61 55 51 50 49
21 21 22 20 18 18 15 15 15 19 18 17 18 19 22 24 25 26 28 29 31 32 32 33 36 41 45 46 47 48 48 49 50 50 51 51 52 53 52 51 52 56 59 63 59 54 54 52 48
23 21 21 23 21 20 17 17 18 15 18 20 21 22 24 26 27 29 29 31 33 35 37 38 41 44 47 50 51 52 54 56 57 56 53 54 54 54 54 53 54 58 63 64 60 56 56 51 45
25 24 22 23 21 21 20 19 20 17 19 23 25 26 25 26 27 28 32 34 35 39 43 42 44 48 50 52 54 56 56 58 59 59 58 57 55 54 55 52 58 62 66 63 57 58 53 47 44
25 25 24 23 22 24 23 20 21 22 21 23 24 25 26 29 30 32 34 38 40 42 44 47 47 50 53 54 57 58 59 59 58 58 58 56 55 55 57 59 65 68 63 60 59 54 50 49 49
27 26 27 26 27 24 24 22 20 22 25 28 29 29 30 32 34 35 37 40 43 46 47 49 50 52 54 54 57 58 58 57 56 55 54 56 55 58 61 64 66 62 62 59 55 53 53 53 53
26 27 28 30 29 27 26 23 22 24 29 32 35 36 36 38 39 40 42 43 43 45 47 49 50 52 53 55 54 56 55 55 54 54 56 56 62 64 65 62 65 62 59 58 58 58 58 59 60
26 26 27 30 29 29 28 25 24 28 33 37 37 37 37 38 40 43 47 49 45 46 49 50 49 48 49 51 53 52 51 53 56 56 59 63 62 61 64 65 61 61 62 63 64 65 66 68 69
Wind_Direction
112 104 95 69 70 87 100 113 110 113 117 119 126 119 110 100 97 84 78 68 61 62 57 55 54 53 53 51 54 54 51 49 44 38 31 22 19 20 19 13 6 359 355 12 16 11 13 20 22
112 104 102 92 89 108 104 96 93 93 106 124 120 119 109 100 94 88 75 63 62 57 51 52 55 58 57 52 46 42 34 25 19 14 12 6 2 1 0 360 4 358 356 358 357 354 352 359 5
110 110 115 116 101 90 84 102 84 117 117 126 119 120 114 102 90 91 72 57 48 51 44 41 39 38 41 37 32 25 22 18 15 7 4 5 1 358 356 353 350 343 340 342 353 351 344 341 344
127 129 135 154 133 127 104 99 134 133 127 119 120 115 110 98 88 72 46 44 43 36 23 23 26 23 28 21 18 15 11 11 8 1 352 345 347 347 346 341 343 342 338 337 337 332 326 327 329
129 136 167 173 172 141 125 123 150 170 160 115 122 137 131 106 86 69 43 26 22 15 11 15 16 22 22 18 18 14 8 5 2 356 346 344 344 342 342 338 340 341 341 340 338 336 331 323 316
129 131 133 150 157 135 131 141 184 196 194 176 146 145 141 108 92 71 22 14 1 359 16 25 30 30 24 13 4 360 353 351 347 342 338 336 333 334 336 333 333 333 332 332 332 335 334 330 323
166 154 142 154 154 151 150 203 221 208 206 201 193 158 143 128 145 43 11 1 2 26 21 10 11 12 13 10 7 3 0 1 2 353 345 340 334 334 333 329 328 325 324 325 329 331 330 328 323
195 192 172 177 148 49 12 284 261 221 213 209 191 177 163 186 163 13 354 8 27 25 12 10 14 17 16 14 9 7 6 5 8 7 2 0 356 353 351 345 339 336 333 331 330 330 331 330 330
197 200 209 199 269 314 313 345 335 240 210 206 197 176 196 225 203 355 17 20 16 18 21 17 17 13 3 350 354 353 351 355 355 357 358 355 352 348 343 339 334 331 325 323 321 321 322 321 321
202 208 210 226 294 336 323 11 353 235 205 197 198 194 213 203 206 43 35 14 21 20 16 13 0 347 337 343 354 0 0 359 356 357 356 353 350 346 341 336 333 330 322 317 313 312 315 316 315
205 236 286 322 321 325 349 11 48 173 176 179 192 203 204 178 80 41 26 33 35 22 4 353 340 332 334 344 349 351 353 351 347 349 347 343 342 340 336 331 329 327 325 321 316 311 309 308 309
233 273 309 320 321 318 339 52 84 137 156 175 187 196 167 112 87 59 44 34 19 3 342 335 328 328 334 338 339 341 343 341 340 341 340 339 337 335 330 327 324 321 319 317 315 313 310 306 302
237 266 290 312 315 327 4 78 103 134 154 168 163 150 141 113 71 58 39 13 351 329 321 323 324 332 342 342 339 341 341 338 337 337 338 339 338 332 326 323 320 317 315 313 310 306 302 299 298
219 234 266 299 306 319 331 117 128 149 163 155 153 141 123 86 54 25 3 323 321 320 321 331 336 336 332 332 335 334 332 329 329 335 341 341 338 335 331 328 324 317 312 309 309 306 302 297 294
232 227 251 284 309 310 289 173 154 170 169 155 139 119 108 152 339 335 321 319 314 312 311 315 319 324 330 333 334 333 328 325 329 331 327 338 342 340 342 340 335 329 321 318 314 306 300 295 292
231 241 262 269 288 296 245 187 189 206 183 168 145 230 334 342 323 314 309 311 311 310 310 315 320 324 324 326 327 322 320 320 319 316 314 320 330 333 332 328 326 326 328 321 317 316 307 297 291
233 246 256 261 258 270 219 203 197 208 205 216 233 310 324 316 313 313 314 318 316 312 312 315 318 319 319 318 316 316 315 315 312 309 311 308 308 315 320 320 315 317 315 317 322 314 313 308 299
243 253 263 278 280 275 237 213 210 214 215 238 269 292 299 310 308 310 311 310 308 309 313 315 314 315 314 312 311 311 312 311 309 309 309 307 305 306 312 312 311 311 314 312 320 319 314 309 302
239 255 263 270 270 267 231 225 228 233 233 248 271 287 304 303 301 303 303 308 310 310 310 309 308 307 307 307 308 308 308 307 307 308 307 305 304 305 309 308 310 311 314 309 316 319 318 312 305
256 257 260 266 268 263 232 235 238 244 248 259 271 282 292 301 302 303 305 307 307 307 306 305 303 302 302 304 305 305 307 308 308 308 308 307 307 304 305 306 310 312 314 313 314 317 317 310 304
260 260 257 261 261 253 231 245 244 255 269 270 268 280 291 301 306 305 302 299 301 301 299 298 298 299 301 302 302 304 305 306 306 307 307 305 304 305 305 305 308 312 313 311 310 310 312 308 307
256 260 254 253 257 239 238 251 265 263 267 267 274 282 291 295 298 299 294 293 297 296 296 296 297 297 297 299 301 301 303 303 304 305 305 303 302 303 304 303 305 309 314 314 312 310 310 307 305
254 259 257 254 259 235 240 252 265 268 260 264 271 278 288 291 292 293 293 293 293 293 294 294 296 296 297 300 302 303 302 303 305 305 304 302 302 304 304 304 305 304 308 312 312 311 311 309 307
262 262 263 265 266 239 241 252 253 265 269 271 272 276 282 287 289 287 289 291 292 295 296 296 298 299 301 303 303 303 300 301 304 304 304 304 305 305 303 305 307 307 306 309 311 308 307 306 303
263 264 262 260 261 245 236 249 252 251 263 266 270 275 282 284 286 292 294 294 296 297 297 299 299 298 300 303 304 304 303 303 306 306 306 307 306 304 304 305 311 309 308 307 306 306 306 303 300
256 261 262 259 256 241 241 237 255 257 258 266 276 282 282 283 286 288 290 292 293 294 296 297 297 298 300 302 302 301 301 305 307 307 308 306 304 303 305 304 312 309 307 307 305 306 305 303 300
254 261 262 264 258 250 240 240 253 267 272 274 273 272 276 278 280 284 288 290 291 293 295 297 298 297 297 298 299 301 303 305 306 305 303 303 305 307 309 305 308 307 307 307 306 305 303 300 298
252 256 260 266 266 260 253 252 256 269 276 279 281 282 280 281 286 289 289 289 293 294 294 294 294 294 295 299 299 301 303 304 304 303 304 306 308 310 308 306 306 307 308 308 307 305 303 301 299
251 254 256 261 264 269 269 266 263 265 269 275 278 281 287 292 294 294 293 291 289 286 286 289 291 294 297 297 301 301 302 301 303 305 307 308 309 308 307 307 308 309 309 308 307 306 303 301 299
246 251 255 259 263 263 266 266 271 274 273 272 278 286 291 293 293 292 291 287 284 287 290 293 294 295 298 301 300 300 301 303 305 308 307 308 308 309 308 310 311 310 310 309 307 305 303 301 298